Weather History for Waterville, ME

Change the Weather History Date:

Saturday, March 2, 2013

  Actual Average Record
Temperature  
Mean Temperature 34 °F -  
Max Temperature 37 °F 38 °F 54 °F (1974)
Min Temperature 30 °F 14 °F -9 °F (1980)
Degree Days  
Heating Degree Days 32    
Moisture  
Dew Point 28 °F    
Average Humidity 83    
Maximum Humidity 100    
Minimum Humidity 70    
Precipitation  
Precipitation 0.06 in - - ()
Sea Level Pressure  
Sea Level Pressure 29.59 in    
Wind  
Wind Speed 11 mph (NNW)    
Max Wind Speed 18 mph    
Max Gust Speed 22 mph    
Visibility 8 miles    
Events      
Averages and records for this station are not official NWS values.
T = Trace of Precipitation, MM = Missing Value Source: NWS Daily Summary

Daily Weather History Graph

Daily Weather History Graph

Search for Another Location

Airport:

Trip Planner

Search our weather history database for the weather conditions in past years. The results will help you decide how hot, cold, wet, or windy it might be!

Date:

Astronomy

Mar. 02, 2013 Rise Set
Actual Time 6:13 AM EST 5:28 PM EST
Civil Twilight 5:44 AM EST 5:57 PM EST
Nautical Twilight 5:11 AM EST 6:31 PM EST
Astronomical Twilight 4:37 AM EST 7:05 PM EST
Moon 11:19 PM EST (3/2) 8:25 AM EST (3/2)
Length of Visible Light 12h 12m
Length of Day
11h 14m
Waning Gibbous, 74% of the Moon is Illuminated
Mar 2
Waning Gibbous
Mar 4
Last Quarter
Mar 11
New
Mar 19
First Quarter
Mar 27
Full

Hourly Weather History & Observations

Time (EST) Temp. Windchill Dew Point Humidity Pressure Visibility Wind Dir Wind Speed Gust Speed Precip Events Conditions
12:15 AM 30.2 °F 20.8 °F 28.4 °F 93% 29.60 in 2.5 mi NNW 11.5 mph 18.4 mph N/A   Overcast
12:35 AM 30.2 °F 20.8 °F 30.2 °F 100% 29.60 in 1.8 mi NW 11.5 mph - N/A   Overcast
12:55 AM 30.2 °F 21.3 °F 28.4 °F 93% 29.59 in 10.0 mi NW 10.4 mph - 0.01 in   Overcast
1:15 AM 30.2 °F 20.8 °F 28.4 °F 93% 29.59 in 10.0 mi NNW 11.5 mph - N/A   Overcast
1:35 AM 30.2 °F 20.8 °F 28.4 °F 93% 29.59 in 10.0 mi NW 11.5 mph - N/A   Overcast
1:55 AM 30.2 °F 20.8 °F 28.4 °F 93% 29.59 in 10.0 mi NW 11.5 mph - N/A   Overcast
2:15 AM 30.2 °F 20.8 °F 28.4 °F 93% 29.58 in 10.0 mi NNW 11.5 mph - N/A   Overcast
2:35 AM 30.2 °F 20.2 °F 28.4 °F 93% 29.58 in 10.0 mi NW 12.7 mph - N/A   Overcast
2:55 AM 30.2 °F 20.2 °F 26.6 °F 86% 29.58 in 10.0 mi NNW 12.7 mph 17.3 mph N/A   Overcast
3:15 AM 30.2 °F 21.3 °F 26.6 °F 86% 29.58 in 10.0 mi NNW 10.4 mph - N/A   Overcast
3:35 AM 30.2 °F 21.3 °F 26.6 °F 86% 29.58 in 10.0 mi NNW 10.4 mph - N/A   Overcast
3:55 AM 30.2 °F 21.9 °F 26.6 °F 86% 29.58 in 10.0 mi NNW 9.2 mph - N/A   Overcast
4:15 AM 30.2 °F 22.6 °F 26.6 °F 86% 29.58 in 10.0 mi NNW 8.1 mph - N/A   Overcast
4:35 AM 30.2 °F 21.3 °F 26.6 °F 86% 29.58 in 10.0 mi NNW 10.4 mph - N/A   Overcast
4:56 AM 30.2 °F 21.3 °F 26.6 °F 86% 29.58 in 10.0 mi North 10.4 mph - N/A   Overcast
5:15 AM 30.2 °F 23.4 °F 26.6 °F 86% 29.59 in 10.0 mi North 6.9 mph - N/A   Overcast
5:35 AM 30.2 °F 24.3 °F 26.6 °F 86% 29.59 in 10.0 mi North 5.8 mph - N/A   Overcast
5:55 AM 30.2 °F 23.4 °F 26.6 °F 86% 29.59 in 10.0 mi NNW 6.9 mph - N/A   Overcast
6:15 AM 30.2 °F 22.6 °F 26.6 °F 86% 29.59 in 10.0 mi North 8.1 mph - N/A   Mostly Cloudy
7:35 AM 30.2 °F 22.6 °F 26.6 °F 86% 29.60 in 10.0 mi NNW 8.1 mph - N/A   Overcast
7:55 AM 30.2 °F 19.8 °F 26.6 °F 86% 29.60 in 10.0 mi NNW 13.8 mph - N/A   Mostly Cloudy
8:15 AM 32.0 °F 23.0 °F 26.6 °F 80% 29.60 in 10.0 mi NNW 11.5 mph - N/A   Partly Cloudy
8:35 AM 32.0 °F 22.5 °F 26.6 °F 80% 29.60 in 10.0 mi NNW 12.7 mph - N/A   Partly Cloudy
8:55 AM 33.8 °F 23.9 °F 26.6 °F 75% 29.60 in 10.0 mi NNW 15.0 mph 18.4 mph N/A   Scattered Clouds
9:15 AM 33.8 °F 24.8 °F 26.6 °F 75% 29.60 in 10.0 mi NNW 12.7 mph - N/A   Mostly Cloudy
9:35 AM 33.8 °F 24.8 °F 26.6 °F 75% 29.59 in 10.0 mi NNW 12.7 mph - N/A   Overcast
9:55 AM 33.8 °F 23.5 °F 26.6 °F 75% 29.59 in 10.0 mi North 16.1 mph 21.9 mph N/A   Overcast
10:15 AM 33.8 °F 25.3 °F 26.6 °F 75% 29.59 in 10.0 mi NNW 11.5 mph 19.6 mph N/A   Mostly Cloudy
10:35 AM 35.6 °F 27.1 °F 26.6 °F 70% 29.59 in 10.0 mi NNW 12.7 mph - N/A   Scattered Clouds
10:55 AM 35.6 °F 26.6 °F 26.6 °F 70% 29.58 in 10.0 mi NNW 13.8 mph - N/A   Mostly Cloudy
11:15 AM 35.6 °F 27.5 °F 26.6 °F 70% 29.58 in 10.0 mi NNW 11.5 mph 17.3 mph N/A   Overcast
11:35 AM 35.6 °F 26.2 °F 26.6 °F 70% 29.58 in 10.0 mi North 15.0 mph - N/A   Mostly Cloudy
11:55 AM 35.6 °F 25.2 °F 26.6 °F 70% 29.58 in 10.0 mi NNW 18.4 mph - N/A   Mostly Cloudy
12:15 PM 35.6 °F 27.1 °F 26.6 °F 70% 29.58 in 10.0 mi NNW 12.7 mph 18.4 mph N/A   Overcast
12:35 PM 35.6 °F 27.1 °F 28.4 °F 75% 29.58 in 9.0 mi NNW 12.7 mph - N/A   Overcast
12:55 PM 35.6 °F 28.0 °F 28.4 °F 75% 29.57 in 9.0 mi NW 10.4 mph - N/A   Mostly Cloudy
1:15 PM 35.6 °F 27.1 °F 28.4 °F 75% 29.57 in 10.0 mi NW 12.7 mph - N/A   Overcast
1:35 PM 35.6 °F 26.2 °F 28.4 °F 75% 29.57 in 10.0 mi NNW 15.0 mph 20.7 mph N/A   Overcast
1:55 PM 35.6 °F 27.5 °F 28.4 °F 75% 29.57 in 10.0 mi NNW 11.5 mph 17.3 mph N/A   Overcast
2:15 PM 35.6 °F 29.2 °F 28.4 °F 75% 29.57 in 10.0 mi NW 8.1 mph - N/A   Overcast
2:35 PM 37.4 °F 29.8 °F 28.4 °F 70% 29.57 in 10.0 mi NNW 11.5 mph - N/A   Overcast
2:55 PM 35.6 °F 27.1 °F 28.4 °F 75% 29.57 in 9.0 mi NNW 12.7 mph - N/A   Overcast
3:15 PM 35.6 °F 29.2 °F 28.4 °F 75% 29.57 in 10.0 mi NW 8.1 mph - N/A   Mostly Cloudy
3:35 PM 35.6 °F 28.0 °F 28.4 °F 75% 29.57 in 10.0 mi NNW 10.4 mph - N/A   Overcast
3:55 PM 35.6 °F 27.5 °F 28.4 °F 75% 29.57 in 10.0 mi NW 11.5 mph - N/A   Overcast
4:15 PM 35.6 °F 28.6 °F 28.4 °F 75% 29.58 in 10.0 mi NNW 9.2 mph - N/A   Overcast
4:35 PM 35.6 °F 28.6 °F 30.2 °F 81% 29.58 in 7.0 mi NNW 9.2 mph - N/A   Overcast
4:55 PM 33.8 °F 27.0 °F 30.2 °F 87% 29.59 in 3.0 mi NNW 8.1 mph - N/A   Overcast
5:15 PM 33.8 °F 25.8 °F 30.2 °F 87% 29.59 in 5.0 mi NNW 10.4 mph - N/A   Overcast
5:35 PM 33.8 °F 26.4 °F 30.2 °F 87% 29.59 in 3.0 mi NNW 9.2 mph - N/A   Overcast
5:55 PM 33.8 °F 26.4 °F 30.2 °F 87% 29.60 in 3.0 mi NNW 9.2 mph - N/A   Overcast
6:15 PM 33.8 °F 25.8 °F 30.2 °F 87% 29.60 in 3.0 mi NNW 10.4 mph - 0.01 in   Overcast
6:35 PM 33.8 °F 25.8 °F 30.2 °F 87% 29.60 in 4.0 mi NNW 10.4 mph - 0.01 in   Overcast
6:55 PM 33.8 °F 27.0 °F 30.2 °F 87% 29.60 in 5.0 mi NNW 8.1 mph - 0.01 in   Overcast
7:15 PM 33.8 °F 26.4 °F 30.2 °F 87% 29.60 in 3.0 mi NNW 9.2 mph - 0.01 in   Overcast
7:35 PM 33.8 °F 26.4 °F 30.2 °F 87% 29.60 in 2.5 mi NNW 9.2 mph - 0.01 in   Overcast
7:55 PM 33.8 °F 25.8 °F 30.2 °F 87% 29.60 in 2.5 mi NNW 10.4 mph - 0.01 in   Overcast
8:35 PM 33.8 °F 25.3 °F 30.2 °F 87% 29.60 in 2.5 mi NNW 11.5 mph - 0.01 in   Overcast
8:55 PM 33.8 °F 25.8 °F 30.2 °F 87% 29.60 in 3.0 mi NNW 10.4 mph - 0.01 in   Overcast
9:15 PM 33.8 °F 25.3 °F 30.2 °F 87% 29.60 in 3.0 mi NNW 11.5 mph - N/A   Overcast
9:35 PM 33.8 °F 25.3 °F 30.2 °F 87% 29.60 in 2.5 mi NNW 11.5 mph - N/A   Overcast
9:55 PM 33.8 °F 25.3 °F 30.2 °F 87% 29.59 in 4.0 mi NNW 11.5 mph - 0.01 in   Mostly Cloudy
10:15 PM 33.8 °F 25.8 °F 30.2 °F 87% 29.59 in 3.0 mi NNW 10.4 mph - N/A   Overcast
10:35 PM 33.8 °F 25.8 °F 30.2 °F 87% 29.58 in 3.0 mi NNW 10.4 mph - N/A   Overcast
10:55 PM 33.8 °F 25.8 °F 30.2 °F 87% 29.58 in 5.0 mi NNW 10.4 mph - N/A   Overcast
11:15 PM 33.8 °F 25.8 °F 30.2 °F 87% 29.58 in 5.0 mi NNW 10.4 mph - 0.01 in   Overcast
11:35 PM 33.8 °F 26.4 °F 30.2 °F 87% 29.58 in 9.0 mi NNW 9.2 mph - 0.01 in   Mostly Cloudy
11:55 PM 33.8 °F 26.4 °F 30.2 °F 87% 29.58 in 10.0 mi NNW 9.2 mph - 0.01 in   Overcast